Flag for Italy

Past Weather in 38°28'35.4"N, 14°57'47.5"E, Italy — Yesterday and Last 2 Weeks

Currently: 73 °F. Clear. (Weather station: Reggio Calabria, Italy). See more current weather

Past Weather in 38°28'35.4"N, 14°57'47.5"E — Graph

°F

38°28'35.4"N, 14°57'47.5"E Temperature Yesterday

Maximum temperature yesterday: 75 °F (at 9:20 am)
Minimum temperature yesterday: 64 °F (at 12:50 am)
Average temperature yesterday: 70 °F

High & Low Weather Summary for the Past Weeks

 TemperatureHumidityPressure
High82 °F (May 17, 1:50 pm)100% (May 18, 3:20 am)30.09 "Hg (May 18, 3:20 am)
Low61 °F (May 24, 2:20 am)20% (May 28, 4:50 pm)29.68 "Hg (May 20, 7:50 pm)
Average71 °F66%29.95 "Hg
* Reported May 15 5:20 pm — May 30 5:20 pm, 38°28'35.4"N, 14°57'47.5"E. Weather by CustomWeather, © 2024

Note: Actual official high and low records may vary slightly from our data, if they occured in-between our weather recording intervals... More about our weather records

38°28'35.4"N, 14°57'47.5"E Weather History for the Previous 24 Hours

Scroll right to see more
 ConditionsComfort  
Time TempWeatherWind HumidityBarometerVisibility
5:20 pm
Thu, May 30
73 °FClear.8 mph74%29.86 "HgN/A
4:50 pm75 °FClear.9 mph69%29.86 "HgN/A
4:20 pm75 °FClear.13 mph69%29.86 "HgN/A
3:50 pm77 °FClear.6 mph65%29.86 "HgN/A
2:50 pm79 °FPassing clouds.13 mph54%29.86 "HgN/A
1:50 pm79 °FClear.13 mph58%29.86 "HgN/A
1:20 pm79 °FClear.13 mph58%29.86 "HgN/A
12:50 pm79 °FClear.12 mph58%29.86 "HgN/A
12:20 pm79 °FPassing clouds.12 mph58%29.86 "HgN/A
11:50 am77 °FClear.13 mph61%29.86 "HgN/A
11:20 am77 °FClear.14 mph61%29.86 "HgN/A
10:20 am75 °FPassing clouds.14 mph65%29.86 "HgN/A
9:50 am73 °FClear.13 mph69%29.86 "HgN/A
9:20 am73 °FPassing clouds.12 mph69%29.86 "HgN/A
8:50 am73 °FPassing clouds.12 mph69%29.86 "HgN/A
8:20 am72 °FPassing clouds.12 mph73%29.86 "HgN/A
7:50 am70 °FPartly sunny.8 mph78%29.86 "HgN/A
6:50 am68 °FPartly sunny.5 mph69%29.86 "HgN/A
6:20 am66 °FClear.6 mph68%29.86 "HgN/A
5:50 am63 °FClear.5 mph73%29.86 "HgN/A
5:20 am64 °FPassing clouds.6 mph68%29.83 "HgN/A
4:50 am64 °FPassing clouds.5 mph68%29.83 "HgN/A
4:20 am64 °FPassing clouds.3 mph68%29.86 "HgN/A
3:20 am64 °FPassing clouds.5 mph68%29.86 "HgN/A
2:50 am63 °FPassing clouds.6 mph77%29.86 "HgN/A
2:20 am63 °FClear.6 mph77%29.86 "HgN/A
1:50 am63 °FClear.6 mph77%29.89 "HgN/A
1:20 am64 °FClear.6 mph78%29.89 "HgN/A
12:50 am64 °FClear.3 mph83%29.89 "HgN/A
12:20 am64 °FPassing clouds.3 mph88%29.89 "HgN/A
11:50 pm
Wed, May 29
66 °FPassing clouds.2 mph94%29.89 "HgN/A
11:20 pm66 °FPassing clouds.1 mph94%29.89 "HgN/A
10:50 pm68 °FPassing clouds.2 mph88%29.89 "HgN/A
10:20 pm68 °FPassing clouds.1 mph88%29.92 "HgN/A
9:20 pm68 °FPassing clouds.3 mph88%29.89 "HgN/A
8:50 pm68 °FPassing clouds.3 mph88%29.89 "HgN/A
8:20 pm68 °FPassing clouds.9 mph88%29.89 "HgN/A
7:50 pm70 °FScattered clouds.3 mph83%29.89 "HgN/A
7:20 pm70 °FPartly sunny.6 mph83%29.89 "HgN/A
6:50 pm70 °FPartly sunny.8 mph83%29.89 "HgN/A
6:20 pm70 °FPartly sunny.10 mph83%29.89 "HgN/A
Weather by CustomWeather, © 2024

See weather overview